Location: Newark
(50.8636°N, 0.1571°E)
Time: 08:29:57
(UTC+00:00)

Envisat - Visible Passes

Search period start: 17 October 2019 00:00
Search period end: 27 October 2019 00:00
Orbit: 764 x 766 km, 98.1° (Epoch: 17 October)

Date Brightness Start Highest point End Pass type
(mag) Time Alt. Az. Time Alt. Az. Time Alt. Az.
17 Oct 3.0 17:44:16 10° SSE 17:49:20 79° ENE 17:54:27 10° NNW visible
17 Oct 5.9 19:25:41 10° SW 19:28:58 17° W 19:32:17 10° NW visible
18 Oct 6.0 05:48:55 10° NE 05:52:32 19° E 05:56:07 10° SE visible
18 Oct 4.8 18:47:15 10° SSW 18:51:49 33° W 18:56:25 10° NNW visible
19 Oct 3.5 18:09:48 10° S 18:14:51 66° WSW 18:19:56 10° NNW visible
19 Oct 6.4 19:54:27 10° W 19:54:54 10° W 19:55:19 10° WNW visible
20 Oct 3.0 17:33:04 10° SSE 17:38:05 65° ENE 17:43:08 10° N visible
20 Oct 5.6 19:13:46 10° SW 19:17:35 21° W 19:21:24 10° NW visible
21 Oct 6.2 05:38:06 10° NE 05:41:08 16° E 05:44:08 10° ESE visible
21 Oct 4.4 18:35:42 10° SSW 18:40:28 40° W 18:45:17 10° NNW visible
22 Oct 3.1 17:58:29 10° SSE 18:03:34 80° WSW 18:08:41 10° NNW visible
22 Oct 6.1 19:41:12 10° WSW 19:43:26 13° W 19:45:41 10° WNW visible
23 Oct 3.1 17:21:56 10° SE 17:26:51 53° ENE 17:31:49 10° N visible
23 Oct 5.3 19:02:01 10° SSW 19:06:11 25° W 19:10:23 10° NW visible
24 Oct 6.4 05:27:30 10° ENE 05:29:41 13° E 05:31:52 10° ESE visible
24 Oct 4.0 18:24:14 10° S 18:29:09 50° W 18:34:06 10° NNW visible
25 Oct 3.0 17:47:13 10° SSE 17:52:18 84° ENE 17:57:25 10° NNW visible
25 Oct 5.9 19:28:57 10° SW 19:32:00 16° W 19:35:04 10° NW visible
26 Oct 6.0 05:51:46 10° NE 05:55:33 21° E 05:59:20 10° SE visible
26 Oct 3.3 17:10:51 10° SE 17:15:39 44° ENE 17:20:28 10° N visible
26 Oct 4.9 18:50:21 10° SSW 18:54:49 31° W 18:59:20 10° NNW visible
